Regional Weather Roundup
Issued by NWS

Home | Current Version | Previous Version | Graphics & Text | Print | Product List | Glossary On
Versions: 1 2 3 4 5 6 7 8 9 10 11 12 13 14 15 16 17 18 19 20 21 22 23 24 25 26 27 28 29 30 31 32 33 34 35 36 37 38 39 40 41 42 43 44 45 46 47 48 49 50
000
ASUS44 KMEG 012100
RWRTN
TENNESSEE HOURLY STATE WEATHER ROUNDUP
NATIONAL WEATHER SERVICE MEMPHIS TN
300 PM CST SUN MAR 01 2015

TNZ002-004-019-021-049-052-054-088>092-012200-
WEST TENNESSEE

CITY           SKY/WX    TMP DP  RH WIND       PRES   REMARKS
MEMPHIS INTL   FOG       47  45  93 NW3       30.31F VSB 1
NWS MEMPHIS      N/A     46 N/A N/A MISG        N/A
JACKSON        LGT RAIN  48  45  89 N3        30.31F VSB 1
DYERSBURG      CLOUDY    37  27  65 NW3       30.35S
UNION CITY     CLOUDY    34  32  93 N6        30.33S WCI  29
PARIS          CLOUDY    43  41  93 SW6       30.32S
LEXINGTON      CLOUDY    50  48  93 CALM      30.30F
SAVANNAH       CLOUDY    52  52 100 S5        30.31S
$$

TNZ008-025-027-028-033-062-065-066-012200-
NORTH MIDDLE TENNESSEE

CITY           SKY/WX    TMP DP  RH WIND       PRES   REMARKS
NASHVILLE      CLOUDY    51  49  92 SW7       30.32S
CLARKSVILLE    CLOUDY    47  46  97 SW9       30.30F FOG
COOKEVILLE     CLOUDY    50  48  93 SW7       30.32S
CROSSVILLE     CLOUDY    47  45  93 VRB5      30.33S
$$

TNZ061-075-076-078-094-096-097-012200-
SOUTH MIDDLE TENNESSEE

CITY           SKY/WX    TMP DP  RH WIND       PRES   REMARKS
FAYETTEVILLE   CLOUDY    46  46 100 S8          N/A
TULLAHOMA      CLOUDY    48  46  93 S7        30.34F
WINCHESTER     CLOUDY    48  46  93 SE5       30.36S
COLUMBIA       CLOUDY   N/A N/A N/A S5        30.30S
SHELBYVILLE    PTSUNNY   50  48  93 S9        30.34S
$$

TNZ017-018-042-046-047-012200-
NORTHEAST TENNESSEE

CITY           SKY/WX    TMP DP  RH WIND       PRES   REMARKS
TRI CITIES     CLOUDY    52  37  56 NW8       30.32R
ELIZABETHTON   MOCLDY    57  39  51 VRB6      30.29F
$$

TNZ012-013-036-069-073-074-012200-
CENTRAL EAST TENNESSEE

CITY           SKY/WX    TMP DP  RH WIND       PRES   REMARKS
KNOXVILLE      LGT RAIN  47  39  74 SW6       30.35F
OAK RIDGE      LGT RAIN  47  41  80 W5        30.36F
GATLINBURG     CLOUDY    50  36  57 W7        30.35R
$$

TNZ083-085-099-012200-
SOUTHEAST TENNESSEE

CITY           SKY/WX    TMP DP  RH WIND       PRES   REMARKS
CHATTANOOGA    CLOUDY    49  43  80 SW8       30.39R
$$

SKY/WX REPORTED AS FAIR MEANS FEW OR NO CLOUDS BELOW
12 THOUSAND FEET.




USA.gov is the U.S. government's official web portal to all federal, state and local government web resources and services.